Flag for U.S.A. Weather past 2 weeks in Chicago, Illinois, U.S.A.

Now
59 °F

Mostly cloudy.


Feels Like: 57 °F
Forecast: 47 / 66 °F
Wind: 10 mph from Northeast

Location: Chicago Midway Airport

Current Time: May 30, 2015 at 12:36:35 PM

Latest Report: May 30, 2015 at 11:53 AM


Visibility: 9 mi

Pressure: 29.99 "Hg

Humidity: 93%

Dew point: 57 °F

Location of ChicagoLocation

Historic Weather in Chicago — Graph

°F

Chicago temperature yesterday

Maximum temperature yesterday: 83 °F (at 4:53 PM)
Minimum temperature yesterday: 71 °F (at 12:53 AM)
Average temperature yesterday: 77 °F

Past Weeks' High & Low Weather Summary

 TemperatureHumidityPressure
High84 °F (May 17, 5:53 PM)90% (May 17, 7:53 AM)30.34 "Hg (May 17, 7:53 AM)
Low44 °F (May 19, 9:53 PM)21% (May 23, 4:53 PM)29.74 "Hg (May 26, 3:53 PM)
Average67 °F62%30.03 "Hg
* Reported May 15 10:53 AM — May 30 10:53 AM, Chicago, Weather by CustomWeather, © 2015

Note: Actual official high and low records may vary slightly from our data, if they occured in-between our weather recording intervals... More about our weather records

Advertising

Chicago weather history for previous 24 hours

 ConditionsComfort  
Time TempWeatherWind HumidityBarometerVisibility
10:53 AM
Sat, May 30
70 °FLight rain. Fog.5 mph84%29.98 "Hg4 mi
9:53 AM71 °FOvercast.5 mph81%29.96 "Hg10 mi
8:53 AM70 °FLight rain. Mostly cloudy.5 mph87%29.96 "Hg8 mi
7:53 AM70 °FLight rain. More clouds than sun.6 mph90%29.94 "Hg8 mi
6:53 AM71 °FMostly cloudy.5 mph87%29.94 "Hg10 mi
5:53 AM70 °FLight rain. Fog.6 mph90%29.94 "Hg6 mi
4:53 AM71 °FOvercast.7 mph84%29.91 "Hg10 mi
3:53 AM71 °FPartly cloudy.9 mph84%29.90 "Hg10 mi
2:53 AM72 °FPassing clouds.8 mph78%29.90 "Hg10 mi
1:53 AM73 °FPartly cloudy.8 mph76%29.90 "Hg10 mi
12:53 AM73 °FPassing clouds.9 mph76%29.91 "Hg10 mi
11:53 PM
Fri, May 29
74 °FPartly cloudy.10 mph76%29.92 "Hg10 mi
10:53 PM75 °FPassing clouds.14 mph74%29.91 "Hg10 mi
9:53 PM77 °FPartly cloudy.10 mph69%29.90 "Hg10 mi
8:53 PM78 °FBroken clouds.10 mph69%29.89 "Hg10 mi
7:53 PM82 °FBroken clouds.10 mph56%29.88 "Hg10 mi
6:53 PM82 °FBroken clouds.12 mph58%29.87 "Hg10 mi
5:53 PM82 °FBroken clouds.16 mph56%29.86 "Hg10 mi
4:53 PM83 °FBroken clouds.14 mph59%29.87 "Hg10 mi
3:53 PM82 °FPartly sunny.16 mph56%29.88 "Hg10 mi
2:53 PM82 °FBroken clouds.13 mph63%29.90 "Hg10 mi
1:53 PM80 °FBroken clouds.14 mph64%29.94 "Hg10 mi
12:53 PM78 °FPartly sunny.10 mph74%29.97 "Hg10 mi
Weather by CustomWeather, © 2015

See weather overviewHow to use our weather pages